Theta_e
282 281 284 284 283 283 283 284 285 286 285 285 285 285 285 285 285 286 286 286 286 287 288 289 289 289 288 288 290 291 292 292 292 297 302 305 307 312
281 284 283 284 284 284 284 285 285 285 285 285 285 285 285 285 285 286 286 286 286 286 286 287 288 288 288 287 287 290 291 290 291 294 303 305 307 314
284 283 283 283 284 284 285 285 285 285 285 285 284 284 284 285 285 285 285 286 286 286 286 286 286 287 287 287 287 288 290 290 290 292 300 303 308 311
283 283 283 283 283 284 285 285 285 285 285 285 284 284 284 284 284 284 285 285 286 286 286 286 286 286 287 287 287 289 289 289 290 292 299 301 304 312
282 283 283 283 283 284 285 285 285 285 285 285 284 284 284 284 284 284 285 285 286 286 286 286 286 286 287 287 288 290 290 290 290 291 298 302 305 313
283 283 283 283 283 284 284 284 284 284 284 284 284 284 284 284 284 284 285 286 286 286 286 286 286 286 286 287 289 290 290 290 290 291 296 302 304 311
283 283 283 283 284 284 284 284 284 284 284 284 284 284 284 283 284 284 285 286 287 287 287 286 286 287 287 287 288 289 290 290 290 291 295 302 303 311
283 283 284 284 284 285 285 285 285 285 285 284 284 284 284 284 285 284 285 286 286 286 287 287 286 287 287 288 288 289 290 290 290 291 294 301 302 309
283 283 284 284 285 285 285 286 287 287 286 285 285 284 285 285 285 285 286 286 286 286 287 287 288 288 287 287 288 288 289 290 291 291 294 300 302 308
283 283 283 284 285 285 286 287 287 287 287 287 286 286 286 285 285 286 286 286 286 286 286 287 287 288 288 289 289 289 289 291 291 291 293 300 302 309
283 284 283 284 284 285 286 287 288 288 288 288 288 287 286 286 285 286 286 285 285 286 286 286 287 289 289 290 290 289 290 291 291 291 293 299 303 309
284 284 284 284 284 285 286 286 287 288 288 288 288 286 286 286 286 286 286 286 285 285 286 287 287 289 290 291 290 290 290 291 291 291 293 299 303 312
283 283 284 284 285 285 286 286 287 288 288 288 287 286 286 286 286 286 286 285 285 286 288 289 289 290 291 292 293 291 291 291 291 292 295 299 303 314
283 284 284 285 285 286 286 286 287 288 287 288 288 287 287 287 286 286 286 286 286 287 287 288 289 289 290 292 294 294 292 291 292 292 297 300 305 313
284 284 285 285 286 286 286 286 287 287 288 288 287 288 287 287 287 287 286 286 287 287 288 288 289 290 290 291 294 296 294 292 292 294 299 302 307 315
285 285 285 285 285 286 286 286 286 287 287 287 288 288 289 288 288 288 288 288 287 288 289 290 290 291 292 293 295 296 298 294 294 297 301 306 311 317
285 285 285 285 285 286 286 286 286 286 287 287 288 288 289 289 289 289 289 289 289 290 291 292 292 292 293 295 296 298 300 301 297 302 307 311 316 318
282 284 284 284 284 284 284 285 286 286 286 287 287 288 289 289 289 290 290 291 291 291 291 291 292 293 295 296 298 300 303 306 305 309 311 314 315 318
279 279 282 283 284 284 284 284 285 285 286 287 287 288 288 289 289 289 290 290 290 291 292 292 294 296 296 299 302 304 307 310 311 313 314 316 317 319
279 278 279 281 284 285 285 285 286 286 286 286 287 288 288 288 289 289 289 290 291 293 294 293 296 299 301 303 306 307 309 312 313 316 316 317 318 319
279 279 279 279 281 284 286 286 286 286 286 287 287 288 288 288 289 289 290 290 292 294 295 295 299 302 305 307 309 310 311 313 314 316 317 317 317 318
279 279 280 279 280 281 285 287 287 288 288 288 287 288 289 289 289 290 291 291 294 298 299 300 302 306 307 308 309 311 313 314 315 314 317 318 319 319
278 279 280 280 280 280 282 286 287 288 289 289 288 289 289 290 290 290 291 293 294 297 298 301 304 308 308 310 311 312 313 313 315 317 318 318 317 318
Wind_Speed
38 34 27 21 17 17 19 18 22 21 22 21 19 16 13 14 16 17 19 19 20 19 20 21 22 23 21 20 17 16 15 16 17 16 17 17 22 30
32 28 22 17 16 16 16 17 17 21 23 23 22 20 17 16 16 17 18 20 21 22 23 23 24 25 24 22 22 18 16 18 18 18 19 17 17 29
29 22 19 16 16 16 16 16 17 19 22 26 23 20 20 20 19 19 19 22 22 22 23 25 27 28 27 25 24 21 20 18 19 19 22 18 16 30
26 23 20 18 17 16 15 16 18 21 22 26 22 23 20 18 21 21 20 22 23 22 23 25 26 27 27 26 24 21 21 19 20 21 24 21 18 26
23 20 19 17 17 15 16 15 18 16 20 24 27 24 21 16 17 18 19 20 21 21 22 24 25 26 26 26 25 21 22 20 20 22 25 23 20 21
21 19 18 18 17 15 21 22 21 23 23 24 24 23 21 20 18 20 19 18 19 19 19 20 21 23 25 27 26 23 22 22 23 24 26 26 24 26
20 19 18 16 16 16 18 21 22 22 22 25 28 29 28 23 20 16 18 15 14 16 19 21 21 22 24 28 29 25 23 23 24 26 27 28 25 27
22 20 18 17 17 18 18 19 20 23 26 27 27 26 24 21 16 15 15 15 16 12 12 15 20 22 24 28 28 27 25 25 26 27 28 29 26 28
21 20 19 20 20 21 23 23 21 19 20 24 28 28 25 20 15 15 17 18 17 12 11 16 13 18 20 25 27 28 26 27 29 28 30 31 28 28
20 20 20 22 20 23 22 19 17 15 15 18 24 22 20 16 16 17 16 17 19 19 17 21 15 22 19 22 23 27 26 28 30 29 31 32 28 27
21 20 20 21 21 19 18 17 15 11 10 15 14 14 14 15 14 14 18 20 20 20 21 20 17 17 22 25 25 27 26 30 31 30 31 32 30 28
24 22 19 20 19 17 17 16 15 14 10 6 7 9 10 13 14 20 21 22 21 17 18 20 17 11 9 18 21 24 26 31 30 31 33 33 29 31
27 27 23 20 17 16 16 15 12 10 8 6 4 5 11 18 17 18 21 22 21 20 10 14 10 8 14 7 11 21 27 29 31 32 36 34 32 36
28 27 25 21 19 18 17 16 11 10 6 7 7 7 9 12 17 19 20 20 21 20 16 17 16 13 12 9 9 14 25 27 30 33 37 35 33 33
29 28 26 26 24 21 21 19 16 15 14 11 6 6 8 8 12 13 17 19 20 22 22 21 20 17 16 16 13 13 21 28 30 36 37 38 36 34
34 33 33 33 31 27 26 26 24 21 20 15 10 5 6 10 13 12 17 19 21 23 23 23 22 20 19 19 19 17 21 26 34 37 38 34 34 42
41 40 41 41 40 37 34 33 29 27 26 21 16 9 4 8 11 14 17 18 21 21 21 22 22 20 19 21 23 22 25 24 38 37 35 34 37 47
49 51 48 46 45 43 40 38 35 34 32 29 24 17 9 5 4 10 14 19 21 22 20 17 19 22 22 22 21 28 28 31 36 34 36 36 46 50
54 54 52 49 46 44 42 41 40 39 36 33 29 25 19 13 6 4 11 15 18 20 24 20 25 29 27 26 24 34 34 30 37 32 31 40 52 51
55 56 55 53 50 47 45 44 43 43 41 39 35 32 29 25 19 13 10 14 17 21 22 28 35 33 28 31 27 32 34 30 35 37 49 46 48 50
55 56 56 56 54 51 48 47 46 45 44 43 41 39 37 33 27 21 20 17 21 25 28 29 33 23 30 27 30 30 31 34 38 35 46 49 47 48
52 55 55 56 57 56 54 52 51 50 48 47 46 44 43 39 36 30 27 28 26 27 24 24 25 27 32 35 26 29 37 39 41 37 47 52 54 44
49 51 53 56 57 58 57 56 55 53 50 49 50 48 48 47 42 40 33 30 28 26 25 25 26 29 33 32 24 29 26 39 46 41 47 43 44 42
Wind_Direction
314 315 311 306 304 290 275 270 276 280 280 290 292 290 281 261 253 251 248 249 250 250 246 245 251 258 267 269 268 266 262 252 236 225 225 227 227 225
322 319 311 306 302 294 287 279 268 274 281 284 284 286 279 269 258 255 251 248 249 250 249 248 252 257 261 266 267 259 258 240 229 222 218 224 217 211
327 322 315 307 303 301 291 280 272 269 270 282 281 281 278 274 265 261 256 252 251 251 251 249 251 255 259 260 257 254 251 233 226 219 214 221 218 208
332 325 321 312 303 297 295 293 291 274 266 277 284 283 279 270 266 263 258 254 253 252 252 253 254 254 254 250 246 248 247 230 225 218 211 217 212 203
333 328 322 313 306 300 297 289 295 287 273 273 281 283 283 271 264 260 258 252 252 256 252 255 255 252 247 240 237 243 243 227 226 220 207 214 214 195
338 333 328 319 311 304 298 297 293 280 274 274 275 276 277 278 270 265 256 253 258 252 247 255 254 246 240 231 232 238 239 222 222 222 207 209 209 202
339 338 333 328 316 305 300 297 292 285 278 272 271 273 274 270 267 252 251 251 254 242 250 255 249 242 234 226 230 234 236 221 223 222 209 209 211 204
343 339 335 334 330 324 312 297 284 275 273 271 271 269 268 267 258 229 236 246 255 248 253 256 243 240 232 226 230 235 232 218 222 221 209 208 213 208
344 341 340 341 337 332 322 310 298 281 264 263 264 265 265 257 243 220 229 232 239 238 248 252 242 249 234 230 233 232 229 217 221 219 206 207 209 206
347 346 345 341 341 336 327 319 314 296 274 263 258 262 257 248 238 238 237 242 246 244 246 264 249 249 243 239 233 230 226 214 219 216 207 205 205 206
355 351 347 345 345 343 341 340 336 329 321 264 264 253 240 222 227 242 232 227 240 241 233 253 262 264 243 241 234 229 221 213 216 213 206 203 199 202
0 357 352 352 352 357 360 360 348 345 338 328 245 242 228 227 233 229 233 232 236 247 232 235 256 251 268 251 241 230 218 215 213 210 203 198 196 196
6 6 5 4 4 8 13 13 10 340 350 331 290 244 230 228 237 228 228 226 230 230 205 210 221 238 231 254 241 219 215 214 213 207 198 194 194 187
14 14 14 14 16 20 25 23 18 17 356 8 321 269 250 228 221 231 230 232 233 229 216 224 240 244 245 246 230 223 213 212 210 202 195 194 195 186
26 24 24 26 28 29 33 32 30 32 31 31 7 307 263 236 237 231 226 232 232 228 221 230 241 242 239 228 214 227 211 205 200 192 195 195 193 188
31 31 31 33 35 35 36 39 40 39 34 27 15 333 281 257 244 237 228 230 231 230 233 236 237 233 229 218 209 207 210 194 188 191 193 193 191 184
34 33 31 31 31 32 34 36 38 38 35 35 30 19 333 272 256 244 241 234 237 235 229 231 233 226 215 210 203 199 194 190 189 188 190 189 193 178
38 34 32 30 28 27 27 30 33 33 32 32 32 34 32 20 263 237 233 228 230 230 226 210 210 197 195 198 198 191 186 189 187 187 184 178 175 181
38 37 33 30 28 28 27 28 28 32 33 35 35 36 39 46 58 151 195 203 210 208 200 205 183 176 175 169 175 180 182 182 179 172 182 181 174 183
36 34 34 31 29 28 28 29 31 34 35 35 35 38 40 41 50 75 127 163 176 181 181 178 163 165 175 164 165 175 178 181 175 173 174 174 183 186
33 34 33 32 31 29 29 31 33 34 35 37 37 39 41 43 54 73 91 119 141 148 158 168 170 162 166 166 157 163 178 179 181 178 179 180 176 180
33 33 32 32 32 31 30 30 33 36 37 39 39 42 46 50 54 65 80 95 111 124 141 148 155 153 156 164 159 162 155 172 175 183 180 184 182 176
34 34 32 31 31 32 31 33 33 35 38 41 42 43 48 51 56 64 73 82 93 106 118 131 141 145 157 167 151 158 159 171 175 174 166 172 179 186